Regional Weather Roundup
Issued by NWS

Home | Current Version | Previous Version | Text Only | Print | Product List | Glossary Off
Versions: 1 2 3 4 5 6 7 8 9 10 11 12 13 14 15 16 17 18 19 20 21 22 23 24 25 26 27 28 29 30 31 32 33 34 35 36 37 38 39 40 41 42 43 44 45 46 47 48 49 50

000
ASUS43 KTOP 281908
RWRKS

WEATHER ROUNDUP FOR KANSAS
NATIONAL WEATHER SERVICE GOODLAND KS
100 PM CST SAT FEB 28 2015

NOTE:  "FAIR" INDICATES FEW OR NO CLOUDS BELOW 12,000 FEET WITH NO
SIGNIFICANT WEATHER AND/OR OBSTRUCTIONS TO VISIBILITY.

KSZ001>006-013>018-027>032-041>047-282000-
NORTHWEST KANSAS

CITY           SKY/WX    TMP DP  RH WIND       PRES   REMARKS
GOODLAND       LGT SNOW  17  11  77 S9        30.11F
HAYS           CLOUDY    18   5  57 S10       30.29F WCI   6
HILL CITY      CLOUDY    19  12  74 S10       30.26F WCI   7
RUSSELL        LGT SNOW  18  13  80 S9        30.30F
$$

KSZ061>065-074>080-084>089-282000-
SOUTHWEST KANSAS

CITY           SKY/WX    TMP DP  RH WIND       PRES   REMARKS
DODGE CITY     CLOUDY    18  11  74 S14       30.22F WCI   4
ELKHART          N/A     21  12  68 S17         N/A  WCI   7
GARDEN CITY    CLOUDY    18  12  77 S13       30.17F WCI   5
GREAT BEND     CLOUDY    18  10  73 SE10      30.31F WCI   6
LIBERAL        PTSUNNY   21  12  68 SE13      30.18F WCI   9
PRATT          CLOUDY    19  14  79 SE8       30.31F
$$

KSZ066>073-081>083-090>101-282000-
SOUTHEAST KANSAS

CITY           SKY/WX    TMP DP  RH WIND       PRES   REMARKS
CHANUTE        SNOW      23  20  88 SE6       30.43F VSB 1/2
COFFEYVILLE    LGT SNOW  25  21  85 E3        30.43F VSB 3/4
HUTCHINSON     LGT SNOW  20  14  77 SE8       30.36S
MEDICINE LODGE   N/A     20  15  81 SE7       30.34F
NEWTON         CLOUDY    19  12  73 SE7       30.38F
PARSONS        LGT SNOW  24  21  88 VRB3      30.43F VSB 3/4
WICHITA INTL   LGT SNOW  21  17  84 S8        30.38F VSB 3/4
WICHITA JABRA  LGT SNOW  21  18  88 SE5       30.38F FOG
WICHITA MCCONL LGT SNOW  21  17  84 SE6       30.38F VSB 3/4
WINFIELD       LGT SNOW  22  19  89 SE6       30.40F FOG
$$

KSZ007>012-019>026-033>040-048>060-102>105-282000-
NORTHEAST KANSAS

CITY           SKY/WX    TMP DP  RH WIND       PRES   REMARKS
CONCORDIA      LGT SNOW  19  14  81 S10       30.36F WCI   7
EMPORIA        LGT SNOW  21  18  88 SE7       30.40F FOG
LAWRENCE       LGT SNOW  21  17  84 SE7       30.45F VSB 1
MANHATTAN      LGT SNOW  22  18  85 S6        30.42F VSB 1
MARYSVILLE     LGT SNOW  21  18  86 S7        30.39F
OLATHE IND     SNOW      20  16  84 SE7       30.44F VSB 1/2
OLATHE EXE     SNOW      20  17  88 SE8       30.43F VSB 1/2
SALINA         LGT SNOW  21  15  78 SE9       30.39F
TOPEKA BILLARD LGT SNOW  22  17  81 SE7       30.45F VSB 1
TOPEKA FORBES  LGT SNOW  22  16  78 SE7       30.42F
$$



USA.gov is the U.S. government's official web portal to all federal, state and local government web resources and services.